This demonstration page uses our WeatherBlox Daily Observations layout. Learn more.

Left ArrowRight Arrow

Hourly Observations for January 27, 2015

Temp ( °F °C ) Dew Point ( °F °C ) Humidity (%) Winds ( mph kmh ) Pressure ( in mb ) Visibility ( mi km ) Precip ( " mm )
12:52 am 00:52 Clear 33 0.6 31 -0.6 92 92 N 6 9 30.07 1018 10 16 0.00 0.00
1:52 am 01:52 Clear 33 0.6 31 -0.6 92 92 N 6 9 30.08 1019 10 16 0.00 0.00
2:52 am 02:52 Clear 31 -0.6 29 -1.7 92 92 N 5 7 30.09 1019 10 16 0.00 0.00
3:52 am 03:52 Clear 30 -1.1 28 -2.2 92 92 Calm 30.09 1019 10 16 0.00 0.00
4:52 am 04:52 Clear 29 -1.7 28 -2.2 96 96 Calm 30.10 1019 10 16 0.00 0.00
5:52 am 05:52 Clear 29 -1.7 26 -3.3 89 89 Calm 30.11 1020 10 16 0.00 0.00
6:52 am 06:52 Clear with Patchy Fog 26 -3.3 24 -4.4 92 92 Calm 30.13 1020 10 16 0.00 0.00
7:52 am 07:52 Sunny with Patchy Fog 28 -2.2 25 -3.9 88 88 SE 3 6 30.16 1021 10 16 0.00 0.00
8:52 am 08:52 Partly Cloudy with Patchy Fog 32 0 30 -1.1 92 92 ESE 3 6 30.16 1021 10 16 0.00 0.00
9:52 am 09:52 Mostly Sunny 38 3.3 34 1.1 86 86 SSE 3 6 30.17 1022 10 16 0.00 0.00
10:52 am 10:52 Mostly Sunny 42 5.6 33 0.6 71 71 SE 9 15 30.17 1022 10 16 0.00 0.00
11:52 am 11:52 Mostly Sunny 45 7.2 33 0.6 63 63 SSE 10 17 30.14 1021 10 16 0.00 0.00
12:52 pm 12:52 Mostly Sunny 48 8.9 34 1.1 58 58 SSE 13 20 30.11 1020 10 16 0.00 0.00
1:52 pm 13:52 Mostly Sunny 50 10 33 0.6 52 52 S 12 19 30.08 1019 10 16 0.00 0.00
2:52 pm 14:52 Mostly Sunny 52 11.1 34 1.1 50 50 S 10 17 30.06 1018 10 16 0.00 0.00
3:52 pm 15:52 Mostly Sunny 53 11.7 32 0 45 45 SE 14 22 30.05 1018 10 16 0.00 0.00
4:52 pm 16:52 Partly Cloudy 52 11.1 31 -0.6 45 45 SE 14 22 30.05 1018 10 16 0.00 0.00
5:52 pm 17:52 Mostly Clear 47 8.3 31 -0.6 54 54 SE 10 17 30.06 1018 10 16 0.00 0.00
6:52 pm 18:52 Clear 43 6.1 31 -0.6 63 63 SE 12 19 30.07 1018 10 16 0.00 0.00
7:52 pm 19:52 Clear 44 6.7 30 -1.1 58 58 SE 12 19 30.07 1018 10 16 0.00 0.00
8:52 pm 20:52 Clear 42 5.6 30 -1.1 62 62 SE 14 22 30.06 1018 10 16 0.00 0.00
9:52 pm 21:52 Clear 40 4.4 30 -1.1 68 68 SSE 15 24 30.04 1017 10 16 0.00 0.00
10:52 pm 22:52 Clear 40 4.4 30 -1.1 68 68 SSE 16 26 30.01 1016 10 16 0.00 0.00
11:52 pm 23:52 Clear 39 3.9 30 -1.1 70 70 SSE 15 24 30.01 1016 10 16 0.00 0.00

Powered by AerisWeather